This demonstration page uses our WeatherBlox Daily Observations layout. Learn more.

39.92423, -83.80882

Hourly Observations for July 15, 2018

Temp ( °F °C ) Dew Point ( °F °C ) Humidity (%) Winds ( mph kmh ) Pressure ( in mb ) Visibility ( mi km ) Precip ( " mm )
12:56 am 00:56 Clear 73 22.8 68 20 84 84 Calm 30.03 1017 10 16.0934 0 0
1:56 am 01:56 Clear 71 21.7 68 20 90 90 Calm 30.04 1017 10 16.0934 0 0
2:56 am 02:56 Clear 70 21.1 67 19.4 90 90 Calm 30.02 1017 10 16.0934 0 0
3:56 am 03:56 Clear 71 21.7 68 20 90 90 Calm 30.01 1016 9 14.48406 0 0
4:56 am 04:56 Clear 70 21.1 68 20 93 93 Calm 30.02 1017 10 16.0934 0 0
5:56 am 05:56 Clear 70 21.1 68 20 93 93 Calm 30.03 1017 9 14.48406 0 0
6:56 am 06:56 Sunny 70 21.1 68 20 93 93 Calm 30.04 1017 9 14.48406 0 0
7:56 am 07:56 Sunny 72 22.2 70 21.1 94 94 Calm 30.04 1017 8 12.87472 0 0
8:56 am 08:56 Sunny 75 23.9 71 21.7 88 88 Calm 30.05 1018 10 16.0934 0 0
9:56 am 09:56 Sunny 78 25.6 69 20.6 74 74 Calm 30.03 1017 10 16.0934 0 0
10:56 am 10:56 Sunny 81 27.2 71 21.7 72 72 Calm 30.02 1017 10 16.0934 0 0
11:56 am 11:56 Sunny 83 28.3 72 22.2 70 70 SSE 6 9 30.02 1017 10 16.0934 0 0
12:56 pm 12:56 Sunny 83 28.3 72 22.2 70 70 S 5 7 30.01 1016 10 16.0934 0 0
1:56 pm 13:56 Sunny 84 28.9 71 21.7 65 65 SSW 5 7 30.02 1017 10 16.0934 0 0
2:56 pm 14:56 Sunny 84 28.9 74 23.3 72 72 SSW 3 6 30.02 1017 10 16.0934 0 0
3:56 pm 15:56 Sunny 86 30 74 23.3 67 67 VRB 5 7 30 1016 10 16.0934 0 0
4:56 pm 16:56 Sunny 87 30.6 73 22.8 63 63 VRB 5 7 29.98 1015 10 16.0934 0 0
5:56 pm 17:56 Sunny 85 29.4 73 22.8 68 68 SSW 3 6 29.97 1015 10 16.0934 0 0
6:56 pm 18:56 Sunny 83 28.3 73 22.8 72 72 SW 5 7 29.97 1015 10 16.0934 0 0
7:56 pm 19:56 Sunny 83 28.3 72 22.2 70 70 NW 5 7 29.97 1015 10 16.0934 0 0
8:56 pm 20:56 Sunny 77 25 70 21.1 79 79 NNW 6 9 29.98 1015 10 16.0934 0 0
9:56 pm 21:56 Clear 75 23.9 69 20.6 82 82 Calm 29.98 1015 10 16.0934 0 0
10:56 pm 22:56 Clear 72 22.2 69 20.6 91 91 SE 3 6 30 1016 10 16.0934 0 0
11:56 pm 23:56 Clear 72 22.2 70 21.1 94 94 Calm 30 1016 10 16.0934 0 0

Powered by AerisWeather